Location: Mentone
(34.5413°N, 85.5351°W)
Time: 08:47:36
(UTC-05:00)

ADEOS Rocket - Visible Passes

Search period start: 01 October 2016 00:00
Search period end: 11 October 2016 00:00
Orbit: 860 x 1306 km, 98.7° (Epoch: 30 September)

Date Brightness Start Highest point End Pass type
(mag) Time Alt. Az. Time Alt. Az. Time Alt. Az.
01 Oct 5.9 02:58:32 10° E 02:58:56 10° E 02:59:19 10° E visible
01 Oct 3.1 04:38:36 10° NNE 04:45:30 88° ESE 04:51:30 11° SSW visible
02 Oct 4.5 03:50:18 10° NNE 03:56:22 35° E 04:01:39 11° SSE visible
02 Oct 3.8 05:35:46 10° N 05:41:43 33° WNW 05:47:08 10° SW visible
03 Oct 5.7 03:04:15 10° ENE 03:06:46 12° E 03:09:11 10° ESE visible
03 Oct 3.0 04:46:23 10° N 04:53:09 80° WNW 04:58:44 13° SSW visible
04 Oct 4.2 03:57:54 10° NNE 04:04:06 41° E 04:08:52 14° SSE visible
04 Oct 4.0 05:43:46 10° N 05:49:17 28° WNW 05:54:22 10° WSW visible
05 Oct 5.5 03:11:08 10° NE 03:14:34 15° E 03:17:51 10° ESE visible
05 Oct 3.0 04:54:11 10° N 05:00:48 68° WNW 05:05:57 14° SSW visible
06 Oct 3.9 04:05:31 10° NNE 04:11:49 48° E 04:16:05 18° SSE visible
06 Oct 4.1 05:51:49 10° NNW 05:56:50 24° WNW 06:01:30 10° WSW visible
07 Oct 5.3 03:18:17 10° NE 03:22:22 18° E 03:26:12 10° SE visible
07 Oct 3.1 05:02:00 10° N 05:08:25 58° WNW 05:13:09 16° SSW visible
08 Oct 3.5 04:13:10 10° NNE 04:19:31 56° E 04:23:17 22° S visible
08 Oct 4.3 05:59:55 10° NNW 06:04:21 20° WNW 06:08:31 10° WSW visible
09 Oct 5.1 03:25:34 10° NE 03:30:09 21° E 03:33:23 14° SE visible
09 Oct 3.2 05:09:51 10° N 05:16:00 48° WNW 05:20:19 17° SW visible
10 Oct 3.2 04:20:51 10° NNE 04:27:12 67° E 04:30:27 27° S visible
10 Oct 4.4 06:08:08 10° NNW 06:11:52 16° WNW 06:15:26 10° W visible
